Home   Weather   Auckland   Past weeks

Flag for New Zealand Past Weather in Auckland, New Zealand — Yesterday and Last 2 Weeks

54 °F

Passing clouds.

Feels Like: 49 °F
Forecast: 52 / 61 °F
Wind: 14 mph from West

Location: Auckland Airport

Current Time: Oct 22, 2016 at 12:25:16 AM

Latest Report: Oct 21, 2016 at 11:30 PM

Visibility: N/A

Pressure: 30.01 "Hg

Humidity: 88%

Dew Point: 50 °F

Location of AucklandLocation

Past Weather in Auckland — Graph


Auckland Temperature Yesterday

Maximum temperature yesterday: 63 °F (at 1:00 PM)
Minimum temperature yesterday: 52 °F (at 10:30 PM)
Average temperature yesterday: 58 °F

High & Low Weather Summary for the Past Weeks

High70 °F (Oct 11, 2:30 PM)100% (Oct 7, 3:30 AM)30.18 "Hg (Oct 7, 3:30 AM)
Low48 °F (Oct 14, 3:00 AM)52% (Oct 13, 4:00 PM)29.47 "Hg (Oct 6, 11:00 PM)
Average58 °F79%29.90 "Hg
* Reported Oct 6 11:00 PM — Oct 21 11:00 PM, Auckland, Weather by CustomWeather, © 2016

Note: Actual official high and low records may vary slightly from our data, if they occured in-between our weather recording intervals... More about our weather records


Auckland Weather History for the Previous 24 Hours

Scroll right to see more
Time TempWeatherWind HumidityBarometerVisibility
11:00 PM
Fri, Oct 21
54 °FScattered showers. Mostly cloudy.15 mph88%30.01 "HgN/A
10:30 PM52 °FPartly cloudy.18 mph88%30.01 "HgN/A
10:00 PM54 °FLight rain. Overcast.18 mph82%30.01 "HgN/A
9:30 PM54 °FPassing clouds.21 mph77%30.04 "Hg6 mi
9:00 PM55 °FPassing clouds.17 mph67%30.01 "HgN/A
8:30 PM55 °FCool.18 mph67%30.04 "HgN/A
8:00 PM55 °FCool.16 mph72%30.04 "HgN/A
7:30 PM55 °FPartly sunny.21 mph72%30.01 "HgN/A
7:00 PM57 °FPassing clouds.21 mph72%30.01 "HgN/A
6:30 PM59 °FScattered clouds.21 mph63%30.01 "HgN/A
6:00 PM59 °FDrizzle. Broken clouds.18 mph68%30.01 "HgN/A
5:30 PM61 °FRefreshingly cool.18 mph59%30.01 "HgN/A
5:00 PM61 °FCool.20 mph63%30.01 "HgN/A
4:30 PM63 °FMild.18 mph56%30.01 "HgN/A
4:00 PM61 °FRefreshingly cool.20 mph55%30.04 "HgN/A
3:30 PM59 °FCool.18 mph63%30.04 "HgN/A
3:00 PM63 °FMild.17 mph59%30.04 "HgN/A
2:30 PM63 °FMild.18 mph59%30.04 "HgN/A
2:00 PM63 °FMild.16 mph59%30.04 "HgN/A
1:30 PM63 °FPassing clouds.15 mph59%30.04 "HgN/A
1:00 PM63 °FMild.16 mph56%30.07 "HgN/A
12:30 PM61 °FRefreshingly cool.17 mph55%30.07 "HgN/A
12:00 PM61 °FRefreshingly cool.18 mph55%30.07 "HgN/A
11:30 AM61 °FPassing clouds.20 mph63%30.07 "HgN/A
11:00 AM61 °FCool.18 mph63%30.07 "HgN/A
10:30 AM59 °FBroken clouds.20 mph68%30.07 "HgN/A
10:00 AM61 °FScattered clouds.17 mph72%30.07 "HgN/A
9:30 AM59 °FPassing clouds.18 mph68%30.07 "HgN/A
9:00 AM59 °FBroken clouds.18 mph68%30.07 "HgN/A
8:30 AM57 °FLight rain. Partly sunny.14 mph77%30.04 "HgN/A
8:00 AM59 °FScattered showers. Broken clouds.15 mph82%30.04 "HgN/A
7:30 AM57 °FScattered showers. Passing clouds.16 mph77%30.04 "HgN/A
7:00 AM57 °FPassing clouds.17 mph82%30.01 "HgN/A
6:30 AM57 °FBroken clouds.15 mph88%30.01 "HgN/A
6:00 AM57 °FLight rain. Partly cloudy.16 mph88%30.01 "HgN/A
5:30 AM57 °FPassing clouds.16 mph88%30.01 "HgN/A
5:00 AM59 °FPassing clouds.15 mph88%30.01 "HgN/A
4:30 AM57 °FPassing clouds.9 mph94%30.01 "HgN/A
4:00 AM57 °FPartly cloudy.8 mph94%30.01 "HgN/A
3:30 AM57 °FMostly cloudy.8 mph94%30.01 "HgN/A
3:00 AM57 °FLight rain. Partly cloudy.7 mph94%30.01 "HgN/A
2:30 AM55 °FPassing clouds.3 mph94%30.01 "HgN/A
2:00 AM55 °FCool.3 mph94%30.01 "HgN/A
1:30 AM55 °FCool.3 mph94%30.01 "HgN/A
1:00 AM55 °FPassing clouds.6 mph94%30.01 "HgN/A
12:30 AM55 °FPartly cloudy.6 mph94%30.04 "HgN/A
12:00 AM55 °FPassing clouds.6 mph94%30.04 "HgN/A
Weather by CustomWeather, © 2016

See weather overviewHow to use our weather pages